When you browse on this site, cookies collect data to enhance your experience and personalize the content and advertising you see.
Visit our Privacy Policy to learn more. By continuing to use the site, you agree to this use of cookies and data.
  • In Deutschland
  • Länderverzeichnis
  • Für 7 Tage
  • Wassertemperatur
  • Satellitenkarten
  • Wetterkarte
  • Widgets
  • user-avatar
    Anmelden

    Stündliche Wetter Eilsleben

    Heute, 17 Dezember, Montag

    Zeit Temperatur Niederschläge Wind Luftdruck Luftfeuchtigkeit
    00:00 0°C° 0 mm 1 m/S 748 mmHg 78%
    01:00 0°C° 0 mm 1 m/S 748 mmHg 81%
    02:00 0°C° 0 mm 1 m/S 748 mmHg 82%
    03:00 0°C° 0 mm 1 m/S 748 mmHg 84%
    04:00 0°C° 0 mm 1 m/S 748 mmHg 86%
    05:00 0°C° 0 mm 1 m/S 749 mmHg 87%
    06:00 -2°C° 0 mm 2 m/S 749 mmHg 89%
    07:00 -2°C° 0 mm 2 m/S 749 mmHg 91%
    08:00 -1°C° 0 mm 2 m/S 750 mmHg 89%
    09:00 -1°C° 0 mm 2 m/S 750 mmHg 88%
    10:00 +1°C° 0 mm 2 m/S 751 mmHg 87%
    11:00 +2°C° 0 mm 2 m/S 751 mmHg 84%
    12:00 +3°C° 0 mm 2 m/S 751 mmHg 82%
    13:00 +3°C° 0 mm 2 m/S 751 mmHg 79%
    14:00 +3°C° 0 mm 2 m/S 751 mmHg 82%
    15:00 +2°C° 0 mm 2 m/S 752 mmHg 86%
    16:00 +1°C° 0 mm 2 m/S 752 mmHg 90%
    17:00 +1°C° 0.1 mm 2 m/S 752 mmHg 90%
    18:00 +1°C° 0.1 mm 2 m/S 753 mmHg 91%
    19:00 +1°C° 0.1 mm 2 m/S 753 mmHg 91%
    20:00 0°C° 0.1 mm 3 m/S 753 mmHg 91%
    21:00 0°C° 0.1 mm 3 m/S 754 mmHg 92%
    22:00 0°C° 0.1 mm 3 m/S 754 mmHg 92%
    23:00 0°C° 0 mm 3 m/S 754 mmHg 92%

    Morgen, 18 Dezember, Dienstag

    Zeit Temperatur Niederschläge Wind Luftdruck Luftfeuchtigkeit
    00:00 0°C° 0 mm 3 m/S 754 mmHg 92%
    01:00 0°C° 0 mm 3 m/S 754 mmHg 92%
    02:00 0°C° 0 mm 3 m/S 754 mmHg 92%
    03:00 0°C° 0 mm 3 m/S 754 mmHg 92%
    04:00 0°C° 0 mm 3 m/S 754 mmHg 92%
    05:00 0°C° 0 mm 3 m/S 755 mmHg 92%
    06:00 0°C° 0 mm 3 m/S 755 mmHg 92%
    07:00 0°C° 0 mm 3 m/S 755 mmHg 93%
    08:00 +1°C° 0 mm 3 m/S 755 mmHg 92%
    09:00 +1°C° 0 mm 3 m/S 755 mmHg 91%
    10:00 +1°C° 0 mm 3 m/S 755 mmHg 90%
    11:00 +2°C° 0 mm 3 m/S 755 mmHg 88%
    12:00 +2°C° 0 mm 3 m/S 754 mmHg 86%
    13:00 +3°C° 0 mm 3 m/S 754 mmHg 83%
    14:00 +3°C° 0 mm 2 m/S 754 mmHg 86%
    15:00 +2°C° 0 mm 2 m/S 754 mmHg 88%
    16:00 +1°C° 0 mm 2 m/S 753 mmHg 91%
    17:00 +1°C° 0 mm 2 m/S 753 mmHg 91%
    18:00 -1°C° 0 mm 2 m/S 753 mmHg 92%
    19:00 -1°C° 0 mm 2 m/S 753 mmHg 92%
    20:00 -1°C° 0 mm 3 m/S 752 mmHg 92%
    21:00 -1°C° 0 mm 3 m/S 752 mmHg 91%
    22:00 -1°C° 0 mm 3 m/S 752 mmHg 91%
    23:00 -1°C° 0 mm 3 m/S 751 mmHg 90%

    übermorgen, 19 Dezember, Mittwoch

    Zeit Temperatur Niederschläge Wind Luftdruck Luftfeuchtigkeit
    00:00 -1°C° 0 mm 3 m/S 751 mmHg 88%
    01:00 -2°C° 0 mm 4 m/S 750 mmHg 87%
    02:00 -2°C° 0 mm 4 m/S 750 mmHg 85%
    03:00 -2°C° 0 mm 4 m/S 749 mmHg 84%
    04:00 -2°C° 0 mm 4 m/S 749 mmHg 82%
    05:00 -2°C° 0 mm 4 m/S 748 mmHg 80%
    06:00 -2°C° 0 mm 4 m/S 748 mmHg 78%
    07:00 -2°C° 0 mm 4 m/S 748 mmHg 77%
    08:00 -1°C° 0 mm 4 m/S 748 mmHg 75%
    09:00 -1°C° 0 mm 4 m/S 748 mmHg 73%
    10:00 +1°C° 0 mm 3 m/S 748 mmHg 70%
    11:00 +1°C° 0.2 mm 3 m/S 748 mmHg 73%
    12:00 +2°C° 0.2 mm 3 m/S 748 mmHg 75%
    13:00 +2°C° 0.2 mm 3 m/S 748 mmHg 77%
    14:00 +2°C° 0.1 mm 3 m/S 747 mmHg 80%
    15:00 +3°C° 0.1 mm 2 m/S 747 mmHg 84%
    16:00 +2°C° 0.1 mm 2 m/S 747 mmHg 87%
    17:00 +2°C° 0 mm 2 m/S 747 mmHg 88%
    18:00 +2°C° 0 mm 2 m/S 747 mmHg 89%
    19:00 +2°C° 0 mm 2 m/S 747 mmHg 90%
    20:00 +2°C° 0 mm 2 m/S 748 mmHg 91%
    21:00 +2°C° 0 mm 2 m/S 748 mmHg 91%
    22:00 +2°C° 0 mm 2 m/S 748 mmHg 92%
    23:00 +2°C° 0.1 mm 2 m/S 748 mmHg 92%

    20 Dezember, Donnerstag

    Zeit Temperatur Niederschläge Wind Luftdruck Luftfeuchtigkeit
    00:00 +3°C° 0.1 mm 1 m/S 747 mmHg 92%
    01:00 +3°C° 0.1 mm 1 m/S 747 mmHg 93%
    02:00 +3°C° 0.3 mm 1 m/S 747 mmHg 93%
    03:00 +3°C° 0.3 mm 1 m/S 747 mmHg 94%
    04:00 +3°C° 0.3 mm 1 m/S 747 mmHg 94%
    05:00 +3°C° 0.2 mm 1 m/S 747 mmHg 94%
    06:00 +2°C° 0.2 mm 2 m/S 747 mmHg 94%
    07:00 +2°C° 0.2 mm 2 m/S 747 mmHg 94%
    08:00 +2°C° 0.1 mm 2 m/S 747 mmHg 94%
    09:00 +3°C° 0.1 mm 2 m/S 748 mmHg 93%
    10:00 +3°C° 0.1 mm 2 m/S 748 mmHg 93%
    11:00 +4°C° 0 mm 2 m/S 748 mmHg 91%
    12:00 +4°C° 0 mm 2 m/S 748 mmHg 89%
    13:00 +5°C° 0 mm 2 m/S 748 mmHg 87%
    14:00 +4°C° 0.1 mm 2 m/S 748 mmHg 89%
    15:00 +4°C° 0.1 mm 2 m/S 748 mmHg 91%
    16:00 +4°C° 0.1 mm 2 m/S 748 mmHg 93%
    17:00 +3°C° 0 mm 2 m/S 748 mmHg 93%
    18:00 +3°C° 0 mm 2 m/S 748 mmHg 93%
    19:00 +2°C° 0 mm 2 m/S 749 mmHg 93%
    20:00 +2°C° 0 mm 2 m/S 749 mmHg 92%
    21:00 +2°C° 0 mm 2 m/S 749 mmHg 92%
    22:00 +2°C° 0 mm 2 m/S 749 mmHg 91%
    23:00 +1°C° 0 mm 2 m/S 749 mmHg 91%

    21 Dezember, Freitag

    Zeit Temperatur Niederschläge Wind Luftdruck Luftfeuchtigkeit
    00:00 +1°C° 0 mm 2 m/S 749 mmHg 91%
    01:00 0°C° 0 mm 3 m/S 749 mmHg 91%
    02:00 0°C° 0 mm 3 m/S 748 mmHg 91%
    03:00 0°C° 0 mm 3 m/S 748 mmHg 91%
    04:00 0°C° 0 mm 3 m/S 748 mmHg 91%
    05:00 +1°C° 0.1 mm 3 m/S 748 mmHg 91%
    06:00 +1°C° 0.1 mm 3 m/S 748 mmHg 91%
    07:00 +1°C° 0.1 mm 3 m/S 747 mmHg 91%
    08:00 +2°C° 0.2 mm 3 m/S 747 mmHg 90%
    09:00 +2°C° 0.2 mm 3 m/S 747 mmHg 89%
    10:00 +3°C° 0.2 mm 3 m/S 747 mmHg 88%
    11:00 +3°C° 0 mm 3 m/S 747 mmHg 86%
    12:00 +4°C° 0 mm 3 m/S 746 mmHg 84%
    13:00 +4°C° 0 mm 3 m/S 746 mmHg 83%
    14:00 +5°C° 0 mm 2 m/S 745 mmHg 85%
    15:00 +4°C° 0 mm 2 m/S 745 mmHg 87%
    16:00 +4°C° 0 mm 2 m/S 745 mmHg 89%
    17:00 +4°C° 0.1 mm 2 m/S 744 mmHg 90%
    18:00 +2°C° 0.1 mm 3 m/S 744 mmHg 90%
    19:00 +2°C° 0.1 mm 3 m/S 743 mmHg 90%
    20:00 +2°C° 0.4 mm 3 m/S 743 mmHg 91%
    21:00 +2°C° 0.4 mm 3 m/S 742 mmHg 91%
    22:00 +3°C° 0.4 mm 3 m/S 742 mmHg 91%
    23:00 +3°C° 0.5 mm 3 m/S 741 mmHg 92%

    22 Dezember, Samstag

    Zeit Temperatur Niederschläge Wind Luftdruck Luftfeuchtigkeit
    00:00 +3°C° 0.5 mm 3 m/S 741 mmHg 92%
    01:00 +3°C° 0.5 mm 3 m/S 740 mmHg 93%
    02:00 +4°C° 0.3 mm 4 m/S 741 mmHg 92%
    03:00 +4°C° 0.3 mm 4 m/S 741 mmHg 91%
    04:00 +5°C° 0.3 mm 5 m/S 741 mmHg 90%
    05:00 +5°C° 0.2 mm 5 m/S 742 mmHg 88%
    06:00 +4°C° 0.2 mm 6 m/S 742 mmHg 86%
    07:00 +4°C° 0.2 mm 6 m/S 743 mmHg 84%
    08:00 +4°C° 0.2 mm 6 m/S 743 mmHg 85%
    09:00 +5°C° 0.2 mm 5 m/S 743 mmHg 86%
    10:00 +5°C° 0.2 mm 4 m/S 744 mmHg 87%
    11:00 +6°C° 0.7 mm 4 m/S 743 mmHg 87%
    12:00 +6°C° 0.7 mm 4 m/S 743 mmHg 86%
    13:00 +6°C° 0.7 mm 4 m/S 743 mmHg 86%
    14:00 +6°C° 0.3 mm 4 m/S 744 mmHg 87%
    15:00 +6°C° 0.3 mm 4 m/S 744 mmHg 88%
    16:00 +6°C° 0.3 mm 4 m/S 744 mmHg 89%
    17:00 +6°C° 0.1 mm 4 m/S 745 mmHg 90%
    18:00 +6°C° 0.1 mm 4 m/S 746 mmHg 91%
    19:00 +6°C° 0.1 mm 4 m/S 746 mmHg 92%
    20:00 +6°C° 0.2 mm 4 m/S 747 mmHg 92%
    21:00 +6°C° 0.2 mm 4 m/S 748 mmHg 92%
    22:00 +6°C° 0.2 mm 4 m/S 749 mmHg 92%
    23:00 +6°C° 0.5 mm 5 m/S 749 mmHg 90%
    Mehr zeigen